W4CAT-13 Weather Reports


time (UTC)temp
C
wind
direction
speed
KPH
gust
KPH
rain 1hr
cm
rain 24hr
cm
rain mn
cm
humidity
%
barometer
mb
20260906113644 21 180 0.0 3.2 0.00 1.63 0.00 92 976.0
20260906112144 21 194 3.2 3.2 0.00 1.63 0.00 91 976.0
20260906110718 21 171 1.6 3.2 0.00 1.63 0.00 90 976.0
20260906110644 21 171 1.6 3.2 0.00 1.63 0.00 90 976.0
20260906105114 21 205 1.6 3.2 0.00 1.63 0.00 89 975.6
20260906103614 22 197 1.6 4.8 0.00 1.63 0.00 88 975.6
20260906102044 22 198 1.6 3.2 0.00 1.63 0.00 87 975.6
20260906100514 22 203 4.8 4.8 0.00 1.63 0.00 86 975.6
20260906095014 22 248 1.6 3.2 0.00 1.63 0.00 86 975.6
20260906093514 22 255 1.6 4.8 0.00 1.63 0.00 86 975.6
20260906093444 22 255 1.6 4.8 0.00 1.63 0.00 86 975.6
20260906091944 22 225 4.8 4.8 0.00 1.63 0.00 86 975.6
20260906090444 22 235 4.8 8.0 0.00 1.63 0.00 85 975.6
20260906084914 22 234 4.8 4.8 0.00 1.63 0.00 84 975.3
20260906083449 22 211 8.0 8.0 0.00 1.63 0.00 84 975.6
20260906083414 22 211 8.0 8.0 0.00 1.63 0.00 84 975.6
20260906081844 22 219 4.8 9.7 0.00 1.63 0.00 83 975.6
20260906080314 23 225 8.0 9.7 0.00 1.63 0.00 82 975.3
20260906074814 23 207 4.8 8.0 0.00 1.63 0.00 81 975.3
20260906073244 23 202 3.2 4.8 0.00 1.63 0.00 84 975.6
20260906071714 23 211 4.8 8.0 0.00 1.63 0.00 90 975.6
20260906070214 23 215 4.8 8.0 0.00 1.63 0.00 89 975.6
20260906064714 23 211 4.8 4.8 0.00 1.63 0.00 90 975.6
20260906063245 23 202 3.2 4.8 0.00 1.63 0.00 90 975.7
20260906063214 23 202 3.2 4.8 0.00 1.63 0.00 90 975.7
20260906061714 23 211 4.8 9.7 0.00 1.63 0.00 91 976.0
20260906060214 22 200 3.2 4.8 0.00 1.63 0.00 93 976.0
20260906054714 22 217 4.8 9.7 0.00 1.63 0.00 93 976.0
20260906053217 23 218 3.2 4.8 0.00 1.63 0.00 92 976.0
20260906053144 23 218 3.2 4.8 0.00 1.63 0.00 92 976.0
20260906051614 23 131 1.6 4.8 0.00 1.63 0.00 90 976.3
20260906050145 23 109 4.8 11.3 0.00 1.63 0.00 91 976.6
20260906050114 23 109 4.8 11.3 0.00 1.63 0.00 91 976.6
20260906044614 22 140 3.2 4.8 0.00 1.63 1.63 94 976.3
20260906044543 22 140 3.2 4.8 0.00 1.63 1.63 94 976.3
20260906043014 22 83 3.2 8.0 0.00 1.63 1.63 94 976.6
20260906041513 22 99 8.0 8.0 0.00 1.63 1.63 93 976.6
20260906040013 23 99 1.6 3.2 0.18 1.63 1.63 85 976.0
20260906034525 22 104 1.6 3.2 0.20 1.63 1.63 92 976.0
20260906034513 22 104 1.6 3.2 0.20 1.63 1.63 92 976.0
20260906033013 23 109 3.2 3.2 0.20 1.63 1.63 95 976.0
20260906031513 23 87 4.8 8.0 0.20 1.63 1.63 93 976.6
20260906030013 24 95 3.2 3.2 0.03 1.45 1.45 88 976.3
20260906024513 25 86 3.2 4.8 0.00 1.42 1.42 84 976.0
20260906022943 26 192 1.6 3.2 0.00 1.42 1.42 76 975.3
20260906021443 26 195 1.6 3.2 0.00 1.42 1.42 74 974.9
20260906015943 27 198 1.6 1.6 0.00 1.42 1.42 72 974.9
20260906014413 20 104 4.8 8.0 0.00 1.42 1.42 91 976.0
20260906012913 20 104 4.8 8.0 0.00 1.42 1.42 91 976.0
20260906011343 20 104 4.8 8.0 0.00 1.42 1.42 91 976.0
20260906005813 20 104 4.8 8.0 0.33 1.42 1.42 91 976.0
20260906004313 20 104 4.8 8.0 1.22 1.42 1.42 91 976.0
20260906002743 20 104 4.8 8.0 1.40 1.42 1.42 91 976.0
20260906001243 20 104 4.8 8.0 1.42 1.42 1.42 91 976.0
20260905235743 22 31 4.8 46.7 0.61 0.61 0.61 80 975.6
20260905234213 25 16 1.6 16.1 0.20 0.20 0.20 80 974.6
20260905232713 30 77 4.8 9.7 0.03 0.03 0.03 59 975.1
20260905231143 33 89 1.6 3.2 0.00 0.00 0.00 58 974.6
20260905225613 33 214 0.0 3.2 0.00 0.00 0.00 55 974.3
20260905224043 32 212 3.2 3.2 0.00 0.00 0.00 58 974.6
20260905222543 32 278 0.0 1.6 0.00 0.00 0.00 59 974.3
20260905221301 32 139 1.6 1.6 0.00 0.00 0.00 59 974.4
20260905221013 32 139 1.6 1.6 0.00 0.00 0.00 59 974.4
20260905215443 33 217 0.0 0.0 0.00 0.00 0.00 57 974.6
20260905213913 34 121 0.0 3.2 0.00 0.00 0.00 54 974.4
20260905212343 35 172 1.6 3.2 0.00 0.00 0.00 50 974.6
20260905210843 35 113 0.0 1.6 0.00 0.00 0.00 50 974.7
20260905205343 35 56 1.6 4.8 0.00 0.00 0.00 51 974.9
20260905203813 33 72 0.0 3.2 0.00 0.00 0.00 52 975.0
20260905202313 34 64 1.6 1.6 0.00 0.00 0.00 53 974.9
20260905200743 35 225 0.0 4.8 0.00 0.00 0.00 48 975.0
20260905195243 34 359 0.0 3.2 0.00 0.00 0.00 53 975.6
20260905193713 34 57 0.0 3.2 0.00 0.00 0.00 49 976.0
20260905192143 33 120 1.6 3.2 0.00 0.10 0.00 52 976.0
20260905190613 36 38 0.0 3.2 0.00 0.30 0.00 49 976.0
20260905185043 35 307 0.0 4.8 0.00 0.30 0.00 47 976.3
20260905183513 34 146 1.6 3.2 0.00 0.30 0.00 51 976.3
20260905181943 33 58 1.6 3.2 0.00 0.30 0.00 53 976.9
20260905180443 33 68 1.6 3.2 0.00 0.30 0.00 52 977.0
20260905174913 34 147 0.0 9.7 0.00 0.30 0.00 50 977.0
20260905173413 34 297 3.2 3.2 0.00 0.30 0.00 50 977.3
20260905171843 34 326 1.6 1.6 0.00 0.30 0.00 55 977.3
20260905170313 34 82 4.8 4.8 0.00 0.30 0.00 56 977.6
20260905164743 33 20 0.0 3.2 0.00 0.30 0.00 57 977.3
20260905163213 32 72 1.6 3.2 0.00 0.30 0.00 62 977.6
20260905161643 32 102 4.8 4.8 0.00 0.30 0.00 62 977.6
20260905160113 32 46 3.2 4.8 0.00 0.30 0.00 63 977.6
20260905154637 31 77 3.2 3.2 0.00 0.30 0.00 67 978.0
20260905154543 31 77 3.2 3.2 0.00 0.30 0.00 67 978.0
20260905153043 31 59 3.2 3.2 0.00 0.30 0.00 67 978.3
20260905151512 31 122 0.0 1.6 0.00 0.30 0.00 66 978.3
20260905145943 30 85 1.6 3.2 0.00 0.30 0.00 71 978.3
20260905144412 28 9 0.0 1.6 0.00 0.30 0.00 74 978.3
20260905142912 27 19 1.6 3.2 0.00 0.30 0.00 83 978.3
20260905141412 26 238 1.6 3.2 0.00 0.30 0.00 84 978.7
20260905135912 26 257 1.6 3.2 0.00 0.30 0.00 85 978.7
20260905134420 26 139 0.0 1.6 0.00 0.30 0.00 85 978.3
20260905134342 26 139 0.0 1.6 0.00 0.30 0.00 85 978.3
20260905132915 26 269 0.0 1.6 0.00 0.30 0.00 84 978.3
20260905132842 26 269 0.0 1.6 0.00 0.30 0.00 84 978.3
20260905131312 26 225 0.0 3.2 0.00 0.30 0.00 82 978.3
20260905125742 25 322 0.0 1.6 0.00 0.30 0.00 82 978.3
20260905124242 25 238 0.0 1.6 0.00 0.30 0.00 82 978.7
20260905122712 25 216 0.0 1.6 0.00 0.30 0.00 83 978.3
20260905121207 25 216 0.0 0.0 0.00 0.30 0.00 81 978.0
20260905121142 25 216 0.0 0.0 0.00 0.30 0.00 81 978.0
20260905115612 26 180 0.0 1.6 0.00 0.30 0.00 77 978.0